Back to catalog

STARLINK-6182

AliveCommunicationsVLEO
NORAD 56878·PAYLOAD·🇺🇸 United States

Launched Jun 12, 2023 from Cape Canaveral Space Force Station

Loading…

Next Passes (next 24 hours)

TLE

FreshSource: CelesTrak SupGP

Epoch: Sep 14, 2026, 14:50 UTC

1 56878C 23083C   26257.61854167 -.00003031  00000+0 -10978-3 0  2573
2 56878  43.0003  98.5273 0002069 252.6448  16.5114 15.27582545    11

Track STARLINK-6182 in real time with AllMySat

Download on the App Store